Location: Tierra Monte Subdivision
(35.2092°N, 106.4864°W)
Time: 15:46:29
(UTC+00:00)

IRIDIUM 106 - Pass Details

Date: 30 March 2020
Orbit: 776 x 779 km, 86.4° (Epoch: 28 May)

Event Time Altitude Azimuth Distance (km) Brightness Sun altitude
Rises 03:06:31 0° 2° (N) 3,268 7.8 -20.9°
Reaches altitude 10° 03:08:55 10° 6° (N) 2,336 7.0 -21.3°
Maximum altitude 03:14:04 59° 86° (E) 898 4.3 -22.3°
Enters shadow 03:14:47 54° 120° (ESE) 945 4.3 -22.4°
